Weather History for Nogales, AZ

Change the Weather History Date:

Wednesday, December 4, 2013

  Actual Average (KTUS) Record (KTUS)
Temperature  
Mean Temperature 56 °F 53 °F  
Max Temperature 64 °F 67 °F 85 °F (1895)
Min Temperature 48 °F 40 °F 21 °F (1909)
Degree Days  
Heating Degree Days 9 12  
Month to date heating degree days 45  
Since 1 July heating degree days 251  
Cooling Degree Days 0 0  
Month to date cooling degree days 0  
Year to date cooling degree days 3146  
Growing Degree Days 6 (Base 50)    
Moisture  
Dew Point 38 °F    
Average Humidity 57    
Maximum Humidity 71    
Minimum Humidity 20    
Precipitation  
Precipitation 0.00 in 0.03 in 1.16 in (1992)
Month to date precipitation 0.11  
Year to date precipitation 10.77  
Sea Level Pressure  
Sea Level Pressure 29.79 in    
Wind  
Wind Speed 14 mph (SSW)    
Max Wind Speed 24 mph    
Max Gust Speed 38 mph    
Visibility 10 miles    
Events      
T = Trace of Precipitation, MM = Missing Value Source: NWS Daily Summary

Daily Weather History Graph

Daily Weather History Graph

Search for Another Location

Airport:

Trip Planner

Search our weather history database for the weather conditions in past years. The results will help you decide how hot, cold, wet, or windy it might be!

Date:

Astronomy

Dec. 04, 2013 Rise Set
Actual Time 7:07 AM MST 5:20 PM MST
Civil Twilight 6:40 AM MST 5:46 PM MST
Nautical Twilight 6:10 AM MST 6:16 PM MST
Astronomical Twilight 5:41 AM MST 6:46 PM MST
Moon 8:41 AM MST (12/4) 7:31 PM MST (12/4)
Length of Visible Light 11h 05m
Length of Day
10h 12m
Waxing Crescent, 5% of the Moon is Illuminated
Dec 4
Waxing Crescent
Dec 9
First Quarter
Dec 17
Full
Dec 25
Last Quarter
Jan 1
New

Hourly Weather History & Observations

Time (MST) Temp. Dew Point Humidity Pressure Visibility Wind Dir Wind Speed Gust Speed Precip Events Conditions
12:54 AM 54.0 °F 41.0 °F 62% 29.71 in 10.0 mi SSE 13.8 mph - N/A   Clear
1:54 AM 55.0 °F 42.1 °F 62% 29.70 in 10.0 mi South 13.8 mph - N/A   Clear
2:54 AM 55.9 °F 44.1 °F 64% 29.70 in 10.0 mi South 10.4 mph - N/A   Scattered Clouds
3:54 AM 57.0 °F 44.1 °F 62% 29.68 in 10.0 mi SSE 12.7 mph - N/A   Overcast
4:54 AM 55.9 °F 44.1 °F 64% 29.69 in 10.0 mi SE 11.5 mph - N/A   Overcast
5:54 AM 55.0 °F 44.1 °F 67% 29.71 in 10.0 mi South 13.8 mph - N/A   Scattered Clouds
6:54 AM 55.0 °F 43.0 °F 64% 29.73 in 10.0 mi South 18.4 mph 24.2 mph N/A   Scattered Clouds
7:54 AM 55.0 °F 41.0 °F 59% 29.74 in 10.0 mi South 24.2 mph 31.1 mph N/A   Clear
8:54 AM 57.9 °F 42.1 °F 56% 29.76 in 10.0 mi South 19.6 mph 26.5 mph N/A   Clear
9:54 AM 60.1 °F 39.0 °F 46% 29.78 in 10.0 mi South 20.7 mph 28.8 mph N/A   Clear
10:54 AM 63.0 °F 34.0 °F 34% 29.78 in 10.0 mi South 21.9 mph - N/A   Mostly Cloudy
11:54 AM 64.0 °F 24.1 °F 22% 29.76 in 10.0 mi SSW 16.1 mph 29.9 mph N/A   Clear
12:54 PM 64.9 °F 23.0 °F 20% 29.74 in 10.0 mi SW 23.0 mph 38.0 mph N/A   Clear
1:54 PM 64.9 °F 26.1 °F 23% 29.72 in 10.0 mi SSW 20.7 mph 28.8 mph N/A   Partly Cloudy
2:54 PM 62.1 °F 28.0 °F 28% 29.73 in 10.0 mi SW 17.3 mph 28.8 mph N/A   Scattered Clouds
3:54 PM 59.0 °F 30.9 °F 35% 29.75 in 10.0 mi SSW 17.3 mph 23.0 mph N/A   Clear
4:54 PM 55.0 °F 39.9 °F 57% 29.77 in 10.0 mi WSW 12.7 mph - N/A   Clear
5:54 PM 53.1 °F 39.9 °F 61% 29.79 in 10.0 mi SW 15.0 mph - N/A   Clear
6:54 PM 51.1 °F 41.0 °F 68% 29.82 in 10.0 mi SW 13.8 mph - N/A   Clear
7:54 PM 50.0 °F 41.0 °F 71% 29.83 in 10.0 mi SW 5.8 mph - N/A   Scattered Clouds
8:34 PM 50.0 °F 39.9 °F 68% 29.93 in 10.0 mi Calm Calm - N/A   Partly Cloudy
8:54 PM 48.9 °F 39.9 °F 71% 29.83 in 10.0 mi Calm Calm - N/A   Mostly Cloudy
9:01 PM 50.0 °F 39.9 °F 68% 29.94 in 10.0 mi Calm Calm - N/A   Overcast
9:06 PM 50.0 °F 39.9 °F 68% 29.94 in 10.0 mi Variable 4.6 mph - N/A   Overcast
9:13 PM 48.9 °F 39.9 °F 71% 29.93 in 10.0 mi South 5.8 mph - N/A   Overcast
9:18 PM 48.9 °F 39.9 °F 71% 29.94 in 10.0 mi South 6.9 mph - N/A   Overcast
9:54 PM 48.9 °F 39.9 °F 71% 29.83 in 10.0 mi SSW 9.2 mph - N/A   Overcast
10:54 PM 48.9 °F 39.9 °F 71% 29.83 in 10.0 mi SSW 8.1 mph - N/A   Overcast
11:54 PM 50.0 °F 39.0 °F 66% 29.81 in 10.0 mi South 8.1 mph - N/A   Overcast